Location: R�o Calc�n
(42.1815°N, 0.1362°W)
Time: 02:10:27
(UTC+00:00)

Daily predictions for brighter satellites

Satellite Brightness Start Highest point End
(mag) Time Altitude Azimuth Time Altitude Azimuth Time Altitude Azimuth
FALCON 9 R/B 4.3 03:21:24 33° ESE 03:21:24 33° ESE 03:30:15 10° E
USA 234 4.2 03:57:55 10° ENE 04:04:03 42° SE 04:05:29 37° SSE
Cosmos 1092 Rocket 4.4 04:17:50 54° SE 04:17:50 54° SE 04:22:36 10° SSE
Meteor 1-18 Rocket 4.2 04:41:42 73° NNE 04:42:09 78° E 04:47:46 10° SSE
Cosmos 1850 Rocket 4.1 04:43:57 71° SSE 04:43:57 71° SSE 04:48:40 10° SSE
ATLAS CENTAUR R/B 3.7 04:45:49 16° NNE 04:46:21 16° NE 04:48:56 10° E
Okean O Rocket 3.8 04:53:25 10° NE 04:57:08 26° E 05:00:51 10° SSE
Cosmos 44 4.5 05:01:17 29° NNE 05:01:17 29° NNE 05:03:35 10° NNE
USA 238 DEB 4.1 04:54:41 10° SSW 05:01:12 61° ESE 05:07:56 10° NE
USA 238 4.1 04:54:49 10° SSW 05:01:18 60° ESE 05:08:02 10° NE
Cosmos 2263 Rocket 3.8 05:08:31 20° N 05:08:31 20° N 05:10:29 10° N
Cosmos 2026 Rocket 3.9 05:05:54 31° NNW 05:08:55 66° W 05:15:09 10° S
SKYMED 2 3.6 05:06:36 10° SSE 05:10:55 76° ENE 05:12:22 41° N
Meteor 2-4 Rocket 3.9 05:06:02 11° N 05:11:16 65° ENE 05:16:34 10° SSE
Cosmos 371 Rocket 3.1 05:10:45 18° SSW 05:14:23 81° WNW 05:19:17 10° NNE
Cosmos 1331 Rocket 3.9 05:09:22 10° SSW 05:14:31 88° ESE 05:19:44 10° NNE
ALOS 2.7 05:10:05 10° NNE 05:14:43 61° E 05:19:20 10° S
Okean 3 3.5 05:15:29 39° N 05:17:00 79° E 05:21:14 10° S
Cosmos 405 4.3 05:15:57 22° NNE 05:17:44 39° ENE 05:21:02 10° SSE
METEOR-M 4.4 05:14:48 10° NNE 05:20:09 69° ESE 05:25:28 10° S
Cosmos 2279 Rocket 3.8 05:14:01 10° S 05:20:12 79° W 05:26:29 10° N
FENGYUN 3A 3.9 05:15:38 10° NNE 05:21:00 68° ESE 05:26:21 10° S
Meteor 1-14 Rocket 4.5 05:20:03 10° SSW 05:25:47 48° WNW 05:31:35 10° N
Geosat 4.3 05:22:18 10° SE 05:27:16 67° ENE 05:30:57 18° NNW
Meteor 1-19 Rocket 4.2 05:26:32 27° NNW 05:29:27 55° W 05:35:01 10° S
Cosmos 1110 Rocket 3.9 05:27:23 10° SSW 05:32:29 58° WNW 05:37:35 10° NNE
CZ-4B DEB 4.1 05:29:29 10° NNE 05:35:03 84° WNW 05:40:36 10° SSW
Cosmos 1844 Rocket 2.5 05:30:06 10° SSW 05:35:42 78° WNW 05:41:17 10° NNE
Cosmos 1634 Rocket 4.4 05:30:35 10° SW 05:36:13 36° WNW 05:41:53 10° N
Helios 1A Rocket 3.4 05:33:25 10° NNE 05:37:25 61° ESE 05:41:24 10° S
MOS 1-B 4.2 05:31:53 10° N 05:37:40 73° WNW 05:43:24 10° SSW
GPS 2-04 Rocket1 4.1 05:40:52 20° SW 05:42:44 30° S 05:46:16 10° ESE
BREEZE-M DEB (TANK) 1.1 05:45:59 69° SSW 05:46:00 69° SSW 05:48:57 10° SE
ATLAS 3B R/B 3.9 05:40:00 10° S 05:46:16 43° ESE 05:52:29 10° NE
USA 234 3.3 05:40:47 10° NE 05:47:11 61° NW 05:52:53 14° WSW
SL-24 R/B 4.4 05:44:26 10° SSE 05:48:39 67° ENE 05:52:54 10° N
Cosmos 1844 3.6 05:43:15 10° SSW 05:49:02 78° WNW 05:54:51 10° NNE
Cosmos 1908 Rocket 4.4 05:45:12 10° S 05:49:32 53° E 05:53:52 10° NNE
Meteor 2-13 Rocket 4.4 05:45:05 10° NNW 05:51:07 61° W 05:57:10 10° S
NOSS 3-2 (C) 3.6 05:46:23 10° SSW 05:52:04 75° ESE 05:58:28 10° NE
CZ-4B R/B 3.2 05:48:33 10° NNE 05:54:13 88° WNW 05:59:54 10° SSW
Cosmos 1486 Rocket 4.4 05:50:22 10° NNW 05:55:38 63° ENE 06:00:49 10° SSE
COSMOS 2406 4.1 05:50:15 10° NNW 05:55:46 49° ENE 06:01:14 10° SE
BREEZE-M DEB (TANK) 3.9 05:52:56 23° WNW 05:55:53 35° NNW 05:58:48 10° NE
COSMO-SKYMED 1 3.3 05:55:11 10° SSW 05:59:02 31° W 06:00:55 22° NW
Cosmos 44 Rocket 3.2 05:55:17 10° SW 06:00:10 75° NW 06:04:58 10° NNE
Cosmos 304 Rocket 3.7 06:00:47 10° SSW 06:05:29 59° WNW 06:10:15 10° NNE
Cosmos 1733 Rocket 3.5 06:03:40 10° SW 06:07:39 36° WNW 06:11:40 10° N
H-2A R/B 3.4 06:06:13 10° NNE 06:09:56 57° E 06:13:42 10° S
Cosmos 1743 4.5 06:06:54 10° SSE 06:10:22 35° E 06:13:52 10° NNE
BREEZE-M DEB (TANK) 3.2 06:08:31 10° SW 06:10:54 72° SSE 06:15:35 10° ENE
Cosmos 1655 Rocket 4.3 06:05:28 10° NNW 06:11:19 44° W 06:17:09 10° SSW
IRIDIUM 103 4.3 06:07:32 10° N 06:12:48 90° W 06:18:00 10° S
Cosmos 2082 Rocket 4.0 06:10:38 10° N 06:15:18 26° NE 06:19:56 10° ESE
USA 81 4.0 06:12:12 10° N 06:17:30 87° W 06:22:46 10° S
Meteor 1-13 Rocket 4.5 06:12:16 10° NNW 06:17:33 45° W 06:22:53 10° SSW
Cosmos 1500 4.2 06:16:45 10° SW 06:19:57 25° WNW 06:23:09 10° NNW
GEOS 3 Rocket 3.9 06:16:07 10° SSE 06:21:02 50° WSW 06:25:50 11° NW
ATLAS CENTAUR R/B 1.3 06:22:01 12° NW 06:25:45 63° WSW 06:29:30 10° SSE
CZ-4 R/B 4.3 06:22:51 10° NE 06:25:50 20° E 06:28:49 10° SE
Cosmos 1302 Rocket 4.4 06:22:17 10° SW 06:27:16 41° WNW 06:32:17 10° N
Cosmos 1536 3.4 06:23:48 10° SW 06:27:33 35° WNW 06:31:19 10° N
Cosmos 968 Rocket 3.6 06:24:24 10° NNW 06:29:33 77° ENE 06:34:39 10° SSE
Meteor 1-23 Rocket 4.3 06:23:54 10° NNW 06:29:38 68° W 06:35:17 10° S
IRIDIUM 106 4.4 06:25:55 10° N 06:31:03 61° W 06:36:11 10° SSW
Okean O Rocket 2.4 06:29:38 10° N 06:33:27 29° WNW 06:37:17 10° SW
Hubble Space Telescope 3.5 06:34:21 10° SSW 06:35:58 12° S 06:37:35 10° SSE
Feng Yun 1-1 Rocket 4.4 06:31:40 10° NNE 06:37:22 87° ESE 06:43:11 10° SSW
SMAP 3.0 06:34:06 10° N 06:38:46 74° WNW 06:43:23 10° SSW
NOSS 3-2 (A) 3.9 06:33:42 10° WSW 06:39:07 39° NW 06:45:17 10° NNE
Cosmos 2266 Rocket 4.4 06:33:31 10° NNW 06:39:10 39° W 06:44:44 10° SSW
Cosmos 1503 Rocket 4.2 06:34:19 10° NNW 06:39:41 85° ENE 06:45:03 10° SSE
Meteor 2-19 Rocket 4.5 06:34:53 10° NNW 06:41:00 66° W 06:47:03 10° S
Cosmos 1975 Rocket 3.2 06:38:30 10° N 06:43:00 88° ENE 06:47:29 10° S
Cosmos 389 Rocket 3.3 06:40:17 10° N 06:43:41 51° ENE 06:47:01 10° SSE
Cosmos 1782 Rocket 3.5 06:40:35 10° SSW 06:44:59 68° W 06:49:23 10° N
CENTAUR R/B 2.5 06:41:00 10° SW 06:46:55 66° NW 06:53:52 10° NNE
SAR-Lupe-2 4.2 06:43:23 10° SSE 06:46:55 57° ENE 06:50:27 10° N
Cosmos 2098 Rocket 4.3 06:43:31 10° N 06:48:06 56° E 06:53:51 10° SSE
NOAA 12 4.3 06:43:33 10° NNE 06:48:50 80° ESE 06:54:03 10° S
ALOS 3.8 06:48:56 10° NNW 06:51:38 15° WNW 06:54:20 10° W
Cosmos 2278 Rocket 2.2 06:46:22 10° SSW 06:52:02 80° WNW 06:57:44 10° NNE
USA 238 DEB 4.3 06:46:33 10° WSW 06:52:32 33° NW 06:58:45 10° NNE
USA 238 4.3 06:46:39 10° WSW 06:52:39 33° NW 06:58:51 10° NNE
Cosmos 1354 Rocket 4.1 06:48:21 10° NNW 06:53:41 81° WSW 06:59:00 10° SSE
Cosmos 1441 Rocket 3.5 06:50:33 10° SSW 06:54:22 47° WNW 06:58:10 10° N
ADEOS Rocket 3.3 06:49:30 10° S 06:56:13 62° WSW 07:02:18 10° NNW
Cosmos 1066 Rocket 4.4 06:51:26 10° NNW 06:56:41 47° W 07:01:48 10° SSW
